Orbital Elements at Epoch 2459000.5 (2020-May-31.0) TDB
Reference: JPL 13 (heliocentric ecliptic J2000)
Element | Value | Uncertainty (1-sigma) | Units |
e | .1032023769102448 | 4.9444e-08 | |
a | 1.886713290508307 | 8.2398e-09 | au |
q | 1.691999994379701 | 9.3867e-08 | au |
i | 18.23268337840135 | 1.0649e-05 | deg |
node | 324.2795588855172 | 1.6668e-05 | deg |
peri | 82.78665022970797 | 5.6808e-05 | deg |
M | 168.784401202983 | 5.2907e-05 | deg |
tp | 2458556.700205773756 (2019-Mar-14.20020577) | 0.00013835 | TDB |
period | 946.5799255306064 2.59 | 6.201e-06 1.698e-08 | d yr |
n | .3803165377695937 | 2.4914e-09 | deg/d |
Q | 2.081426586636914 | 9.0902e-09 | au |
|
| | Orbit Determination Parameters
Additional Information
|